Home > Weather > Banja Luka > Past weeks

Flag for Bosnia-Herzegovina Weather for the Past 2 Weeks in Banja Luka, Bosnia-Herzegovina

Now
52 °F

Fog.


Feels Like: 52 °F
Forecast: 48 / 56 °F
Wind: 1 mph from Southwest

Location: Banja Luka

Current Time: May 4, 2016 at 12:30:07 AM

Latest Report: May 3, 2016 at 10:00 PM


Visibility: 4 mi

Pressure: 29.92 "Hg

Humidity: 94%

Dew Point: 51 °F

Location of Banja LukaLocation

Historic Weather in Banja Luka — Graph

°F

Banja Luka Temperature Yesterday

Maximum temperature yesterday: 60 °F (at 2:00 PM)
Minimum temperature yesterday: 51 °F (at 6:00 AM)
Average temperature yesterday: 54 °F

High & Low Weather Summary for the Past Weeks

 TemperatureHumidityPressure
High76 °F (Apr 22, 3:00 PM)96% (Apr 20, 7:00 AM)30.40 "Hg (Apr 20, 7:00 AM)
Low30 °F (Apr 26, 6:00 AM)24% (Apr 22, 3:00 PM)29.61 "Hg (Apr 23, 8:00 PM)
Average54 °F71%29.96 "Hg
* Reported Apr 18 10:00 PM — May 3 10:00 PM, Banja Luka, Weather by CustomWeather, © 2016

Note: Actual official high and low records may vary slightly from our data, if they occured in-between our weather recording intervals... More about our weather records

Advertising

Banja Luka Weather History for the Previous 24 Hours

Scroll right to see more
 ConditionsComfort  
Time TempWeatherWind HumidityBarometerVisibility
10:00 PM
Tue, May 3
52 °FFog.1 mph94%29.92 "Hg4 mi
9:00 PM53 °FOvercast.1 mph93%29.90 "Hg4 mi
8:00 PM54 °FLight rain. Overcast.1 mph91%29.89 "Hg6 mi
7:00 PM54 °FLight rain. Overcast.1 mph91%29.87 "Hg6 mi
6:00 PM55 °FLight rain. Overcast.1 mph86%29.87 "Hg6 mi
5:00 PM54 °FThundershowers. Overcast.1 mph91%29.87 "Hg6 mi
4:00 PM60 °FOvercast.1 mph76%29.86 "Hg6 mi
3:00 PM59 °FLight rain. Overcast.1 mph82%29.86 "Hg2 mi
2:00 PM60 °FFog.1 mph73%29.88 "Hg5 mi
12:00 PM57 °FFog.1 mph87%29.89 "Hg4 mi
11:00 AM55 °FLight rain. Overcast.1 mph90%29.89 "Hg2 mi
10:00 AM54 °FLight rain. Overcast.1 mph94%29.89 "Hg2 mi
9:00 AM52 °FLight rain. Overcast.No wind95%29.89 "Hg2 mi
8:00 AM51 °FLight rain. Overcast.No wind94%29.88 "Hg5 mi
7:00 AM51 °FLight rain. Overcast.1 mph95%29.88 "Hg9 mi
6:00 AM51 °FLight rain. Overcast.1 mph96%29.88 "Hg5 mi
2:00 AM52 °FFog.1 mph94%29.87 "Hg4 mi
12:00 AMN/APassing clouds.N/AN/AN/A9 mi
Weather by CustomWeather, © 2016

See weather overviewHow to use our weather pages